SL-14 R/B, 15100

Orbit data source: Space-Track

SL-14 R/B, 15100 is space debris in LEO originally from a launch on Thu, 05 Jul 1984 UTC launched from the Plesetsk Missile And Space Complex (PKMTR). Debris objects in space refer to the collection of defunct objects orbiting the Earth. Examples of debris include non-operational satellites, rocket bodies, and fragments generated from explosions, collisions, or faulty payload assembly.

Loading next visibility...
Identifier
15100, 1984-072B
Orbit
LEO
Last TLE update
11 hours ago
Origin
Manufacturer
Yuzhnoe
Mission
Spacecraft
Bus & Motor
S5M, Unknown motor
Mass
1,600 kg wet, 1,600 kg dry
Launch date (UTC)
1984-07-05 (41 years ago)
Launch vehicle
Unknown
Launch site
Plesetsk Missile And Space Complex (PKMTR)
Object type
Payload
Rocket body
Debris
Shape & HBR
Cyl, 2.7 m
Radar Cross Section
7.351 m², Large (>1 m²)

Expand to show TLE details & history

TLE from 11 hours ago
0 SL-14 R/B
1 15100U 84072B   25183.63012120  .00000043  00000-0  25239-4 0  9994
2 15100  82.5314 323.4651 0012408  26.6547 333.5249 13.84539197 71109
Epoch: 2025-07-02T15:07Z
TLE epoch observation values (Epoch: 2025-07-02T15:07:22.471Z)
Latitude
-0°
Longitude
175.713°
Altitude
942.597 km
Speed
7.385 km/s
True Right ascension
21h 33m 51s
True Declination
0° 00' 00"
Sunlit
Object was in full shadow at epoch
Visualization orbit readout
Latitude
2.64797°
Longitude
-5.00614°
Altitude
958.445 km
Speed
7.369 km/s
Apparent Right ascension
06h 53m 42s
Apparent Declination
-27° 19' 05"
Sunlit
Object is in daylight
Visualization observer readout
Local Sidereal Time
14:07:55
Azimuth
258.553° W
Elevation
-30.754°
Doppler factor
1
Orbital elements
Apogee altitude
954.069 km
Perigee altitude
935.896 km
Semi-major axis
7,323.12 km
Eccentricity
0.00124
Inclination
82.5314°
RAAN
323.4651°
Arg. of periapsis
26.6547°
True anomaly
Unknown
Mean anomaly
333.5249°
Eccentric anomaly
Unknown
Mean motion
3.46337 °/min
Orbital period
103.94 mins
BSTAR
0.000025239
Loading maneuver chart data...
Loading SW <> Apogee altitude chart data...
Loading historical data...
Loading historical data...
Loading historical data...
Loading historical data...
Loading historical data...
Loading historical data...
Loading historical data...

SL-14 R/B Visibility forecast

Observer location: undefined°, undefined°

Span
Click to sort rows by Start time (UTC) header in descending order
Start Az.
Max El. time (UTC)
Max El. Az.
Max El.
End time (UTC)
End Az.
6 mins2025-07-03 08:36:55.236Z110.989° ESE2025-07-03 08:39:55.236Z79.097° E14.887°2025-07-03 08:42:55.236Z48.649° ENE
10 mins2025-07-03 10:18:55.236Z196.642° SSW2025-07-03 10:23:55.236Z289.59° WNW43.259°2025-07-03 10:28:55.236Z1.691° NNE
10 mins2025-07-03 21:11:55.236Z352.486° N2025-07-03 21:16:55.236Z176.16° S44.917°2025-07-03 21:21:55.236Z174.261° S
|